Flag for Canada Weather past 2 weeks in Clarington, Ontario, Canada

Now
75 °F

Broken clouds.


Feels Like: 77 °F
Forecast: 61 / 76 °F
Wind: 6 mph from South

Location: Peterborough Airport

Current Time: Jul 26, 2014 at 2:17:32 PM

Latest Report: Jul 26, 2014 at 1:00 PM


Visibility: 9 mi

Pressure: 29.88 "Hg

Humidity: 61%

Dew point: 61 °F

Location of ClaringtonLocation

Historic Weather in Clarington — Graph

°F

Clarington temperature yesterday

Maximum temperature yesterday: 75 °F (at 3:00 PM)
Minimum temperature yesterday: 48 °F (at 5:00 AM)
Average temperature yesterday: 63 °F

Past Weeks' High & Low Weather Summary

 TemperatureHumidityPressure
High82 °F (Jul 22, 12:00 PM)100% (Jul 12, 3:00 AM)30.25 "Hg (Jul 12, 3:00 AM)
Low45 °F (Jul 17, 6:00 AM)36% (Jul 18, 2:00 PM)29.66 "Hg (Jul 15, 4:00 PM)
Average65 °F77%30.00 "Hg
* Reported Jul 11 1:00 PM — Jul 26 1:00 PM, Clarington, Weather by CustomWeather, © 2014

Note: Actual official high and low records may vary slightly from our data, if they occured in-between our weather recording intervals... More about our weather records

Advertising

Clarington weather history for previous 24 hours

 ConditionsComfort  
Time TempWeatherWind HumidityBarometerVisibility
1:00 PM
Jul 26
75 °FBroken clouds.6 mph61%29.88 "Hg9 mi
12:00 PM73 °FScattered clouds.6 mph61%29.90 "Hg9 mi
11:00 AM70 °FMostly cloudy.3 mph69%29.91 "Hg9 mi
10:00 AM68 °FMostly cloudy.6 mph73%29.92 "Hg9 mi
9:00 AM66 °FOvercast.6 mph78%29.93 "Hg9 mi
8:00 AM63 °FOvercast.2 mph83%29.93 "Hg9 mi
7:00 AM59 °FCloudy.2 mph88%29.92 "Hg9 mi
6:00 AM55 °FPassing clouds.3 mph94%29.92 "Hg9 mi
5:00 AM57 °FMostly cloudy.2 mph94%29.92 "Hg9 mi
4:00 AM57 °FOvercast.2 mph94%29.92 "Hg9 mi
3:00 AM55 °FClear.3 mph94%29.92 "Hg9 mi
2:00 AM55 °FClear.3 mph94%29.93 "Hg9 mi
1:00 AM57 °FClear.5 mph94%29.94 "Hg9 mi
12:00 AM61 °FPassing clouds.5 mph88%29.94 "Hg9 mi
11:00 PM
Jul 25
64 °FPassing clouds.3 mph78%29.94 "Hg9 mi
10:00 PM64 °FPassing clouds.6 mph73%29.94 "Hg9 mi
9:00 PM66 °FOvercast.5 mph64%29.93 "Hg9 mi
8:00 PM70 °FScattered clouds.5 mph53%29.94 "Hg9 mi
7:00 PM72 °FSunny.6 mph50%29.94 "Hg9 mi
6:00 PM73 °FSunny.10 mph50%29.95 "Hg9 mi
5:00 PM73 °FSunny.10 mph50%29.95 "Hg9 mi
4:00 PM75 °FSunny.9 mph50%29.96 "Hg9 mi
3:00 PM75 °FSunny.7 mph47%29.98 "Hg9 mi
2:00 PM73 °FSunny.6 mph50%29.98 "Hg9 mi
Weather by CustomWeather, © 2014

See weather overviewHow to use our weather pages